QPF
0.01 0.01 0.01 0.01 0.01 0.00 0.00 0.00 0.00 0.00 0.00 0.00 0.00 0.00 0.01 0.01 0.01 0.02 0.02 0.01 0.01 0.02 0.05 0.06 0.10 0.11 0.11 0.13 0.13 0.10 0.08 0.07 0.06 0.04 0.05 0.05 0.05 0.05 0.05 0.04 0.04 0.04 0.05
0.02 0.01 0.01 0.01 0.00 0.00 0.00 0.01 0.01 0.01 0.00 0.01 0.01 0.00 0.00 0.00 0.01 0.01 0.01 0.01 0.01 0.01 0.02 0.02 0.03 0.05 0.06 0.09 0.09 0.07 0.05 0.03 0.02 0.02 0.03 0.03 0.03 0.04 0.05 0.04 0.03 0.05 0.05
0.02 0.01 0.01 0.01 0.00 0.00 0.01 0.01 0.01 0.01 0.01 0.01 0.01 0.01 0.00 0.00 0.00 0.01 0.01 0.00 0.00 0.01 0.01 0.01 0.01 0.01 0.01 0.02 0.03 0.03 0.02 0.02 0.01 0.01 0.01 0.01 0.01 0.03 0.04 0.03 0.03 0.03 0.04
0.05 0.04 0.03 0.01 0.00 0.00 0.01 0.01 0.00 0.01 0.01 0.01 0.01 0.01 0.01 0.00 0.00 0.01 0.01 0.01 0.01 0.01 0.00 0.00 0.01 0.00 0.00 0.00 0.00 0.01 0.01 0.01 0.01 0.01 0.02 0.02 0.01 0.02 0.02 0.02 0.02 0.01 0.02
0.06 0.05 0.04 0.03 0.01 0.00 0.01 0.01 0.01 0.00 0.00 0.01 0.01 0.00 0.00 0.00 0.00 0.01 0.01 0.01 0.01 0.01 0.01 0.01 0.01 0.01 0.01 0.01 0.01 0.00 0.00 0.01 0.01 0.01 0.01 0.01 0.01 0.02 0.01 0.02 0.02 0.02 0.02
0.08 0.06 0.05 0.05 0.03 0.01 0.01 0.01 0.01 0.01 0.00 0.00 0.00 0.00 0.00 0.00 0.00 0.00 0.00 0.01 0.01 0.01 0.00 0.01 0.01 0.01 0.01 0.01 0.01 0.00 0.00 0.01 0.01 0.01 0.01 0.01 0.01 0.02 0.03 0.02 0.03 0.02 0.02
0.13 0.07 0.06 0.05 0.03 0.01 0.01 0.01 0.01 0.00 0.00 0.00 0.00 0.00 0.00 0.00 0.00 0.00 0.00 0.01 0.01 0.01 0.01 0.00 0.00 0.01 0.01 0.01 0.01 0.00 0.00 0.01 0.01 0.02 0.02 0.01 0.01 0.02 0.03 0.03 0.03 0.02 0.02
0.08 0.07 0.06 0.05 0.03 0.01 0.00 0.00 0.01 0.01 0.01 0.01 0.01 0.01 0.01 0.00 0.00 0.01 0.01 0.01 0.01 0.01 0.01 0.01 0.00 0.01 0.01 0.01 0.00 0.00 0.00 0.00 0.01 0.02 0.02 0.01 0.02 0.03 0.01 0.02 0.02 0.02 0.01
0.03 0.03 0.03 0.03 0.02 0.01 0.00 0.00 0.01 0.01 0.02 0.02 0.01 0.01 0.01 0.00 0.01 0.01 0.01 0.01 0.01 0.01 0.01 0.01 0.01 0.01 0.01 0.01 0.00 0.01 0.01 0.01 0.01 0.02 0.01 0.01 0.03 0.02 0.01 0.02 0.02 0.02 0.02
0.02 0.02 0.02 0.01 0.01 0.01 0.00 0.01 0.01 0.01 0.01 0.01 0.01 0.01 0.00 0.00 0.00 0.00 0.01 0.01 0.02 0.02 0.01 0.01 0.00 0.01 0.01 0.01 0.01 0.01 0.01 0.02 0.03 0.02 0.02 0.02 0.03 0.03 0.02 0.02 0.02 0.02 0.03
0.03 0.02 0.01 0.00 0.00 0.00 0.00 0.00 0.00 0.00 0.00 0.01 0.01 0.01 0.00 0.00 0.01 0.00 0.01 0.01 0.02 0.02 0.01 0.01 0.01 0.01 0.01 0.01 0.01 0.01 0.02 0.02 0.02 0.02 0.02 0.02 0.03 0.02 0.02 0.02 0.03 0.02 0.02
0.01 0.01 0.01 0.00 0.00 0.00 0.00 0.00 0.00 0.00 0.00 0.00 0.01 0.01 0.01 0.01 0.01 0.00 0.01 0.01 0.02 0.02 0.01 0.01 0.01 0.02 0.02 0.02 0.02 0.02 0.02 0.02 0.02 0.02 0.01 0.02 0.02 0.02 0.02 0.02 0.02 0.02 0.01
0.00 0.00 0.00 0.00 0.00 0.00 0.00 0.00 0.00 0.00 0.00 0.01 0.01 0.01 0.01 0.01 0.01 0.01 0.01 0.02 0.02 0.01 0.01 0.01 0.01 0.01 0.02 0.02 0.02 0.02 0.02 0.01 0.01 0.02 0.01 0.01 0.01 0.01 0.01 0.01 0.02 0.02 0.02
0.00 0.00 0.00 0.00 0.00 0.00 0.00 0.00 0.00 0.01 0.00 0.01 0.02 0.02 0.01 0.01 0.01 0.02 0.01 0.01 0.01 0.01 0.01 0.01 0.01 0.02 0.02 0.02 0.02 0.03 0.03 0.02 0.02 0.02 0.01 0.01 0.00 0.01 0.01 0.01 0.02 0.03 0.03
0.00 0.00 0.00 0.00 0.00 0.00 0.00 0.01 0.01 0.01 0.01 0.01 0.02 0.02 0.02 0.01 0.01 0.01 0.01 0.01 0.01 0.01 0.01 0.02 0.01 0.01 0.02 0.02 0.03 0.03 0.03 0.03 0.02 0.02 0.01 0.02 0.01 0.01 0.02 0.02 0.02 0.03 0.03
0.00 0.00 0.00 0.00 0.00 0.00 0.01 0.01 0.01 0.02 0.02 0.02 0.02 0.01 0.01 0.01 0.00 0.00 0.01 0.00 0.01 0.01 0.01 0.01 0.01 0.01 0.01 0.02 0.02 0.02 0.03 0.03 0.02 0.02 0.02 0.03 0.03 0.02 0.03 0.03 0.03 0.03 0.04
0.00 0.00 0.01 0.01 0.01 0.00 0.01 0.01 0.01 0.01 0.01 0.01 0.01 0.01 0.00 0.00 0.01 0.01 0.01 0.00 0.00 0.00 0.00 0.00 0.01 0.01 0.01 0.02 0.03 0.04 0.03 0.03 0.03 0.04 0.04 0.04 0.04 0.05 0.05 0.05 0.05 0.05 0.05
0.00 0.01 0.01 0.01 0.01 0.01 0.01 0.01 0.01 0.01 0.01 0.01 0.00 0.00 0.00 0.00 0.00 0.01 0.00 0.00 0.00 0.01 0.01 0.01 0.01 0.01 0.01 0.03 0.04 0.06 0.05 0.03 0.03 0.03 0.05 0.04 0.04 0.04 0.05 0.05 0.04 0.03 0.03
0.01 0.01 0.01 0.01 0.01 0.01 0.00 0.01 0.00 0.00 0.00 0.00 0.00 0.00 0.00 0.00 0.00 0.00 0.00 0.00 0.00 0.00 0.01 0.01 0.01 0.01 0.01 0.03 0.05 0.08 0.05 0.03 0.03 0.03 0.03 0.02 0.02 0.02 0.02 0.02 0.01 0.02 0.02
0.00 0.00 0.01 0.01 0.00 0.00 0.00 0.00 0.00 0.01 0.01 0.01 0.01 0.01 0.00 0.00 0.00 0.00 0.01 0.01 0.01 0.01 0.01 0.02 0.02 0.03 0.03 0.03 0.04 0.07 0.05 0.03 0.03 0.03 0.03 0.03 0.02 0.02 0.02 0.02 0.01 0.01 0.01
0.01 0.01 0.01 0.01 0.01 0.01 0.01 0.01 0.02 0.02 0.01 0.01 0.01 0.00 0.01 0.01 0.01 0.00 0.01 0.01 0.02 0.03 0.04 0.04 0.04 0.04 0.04 0.04 0.04 0.05 0.04 0.04 0.04 0.04 0.03 0.03 0.04 0.03 0.03 0.02 0.02 0.02 0.02
0.02 0.02 0.02 0.02 0.03 0.03 0.03 0.03 0.03 0.03 0.03 0.02 0.01 0.01 0.01 0.01 0.01 0.01 0.02 0.02 0.02 0.03 0.04 0.04 0.04 0.04 0.05 0.05 0.06 0.06 0.05 0.05 0.05 0.05 0.04 0.04 0.04 0.03 0.02 0.02 0.03 0.03 0.03
0.03 0.03 0.03 0.04 0.05 0.06 0.06 0.06 0.07 0.08 0.08 0.06 0.05 0.04 0.03 0.02 0.02 0.02 0.02 0.02 0.02 0.02 0.03 0.03 0.04 0.04 0.03 0.03 0.06 0.05 0.05 0.05 0.05 0.04 0.04 0.05 0.05 0.04 0.03 0.02 0.02 0.03 0.03
0.04 0.03 0.04 0.06 0.07 0.05 0.04 0.04 0.05 0.05 0.05 0.04 0.05 0.05 0.04 0.03 0.02 0.02 0.01 0.01 0.02 0.02 0.03 0.03 0.04 0.05 0.04 0.03 0.03 0.03 0.03 0.04 0.04 0.05 0.07 0.07 0.06 0.04 0.03 0.03 0.03 0.03 0.03
0.05 0.05 0.05 0.06 0.06 0.04 0.02 0.02 0.02 0.02 0.02 0.02 0.03 0.04 0.04 0.03 0.02 0.02 0.02 0.02 0.02 0.03 0.03 0.03 0.04 0.06 0.06 0.06 0.05 0.04 0.04 0.04 0.04 0.04 0.04 0.05 0.05 0.04 0.03 0.03 0.03 0.03 0.04
0.05 0.06 0.05 0.05 0.04 0.03 0.03 0.02 0.02 0.02 0.01 0.02 0.05 0.07 0.07 0.05 0.03 0.02 0.02 0.03 0.03 0.04 0.04 0.05 0.04 0.04 0.05 0.05 0.06 0.07 0.07 0.08 0.07 0.06 0.05 0.04 0.04 0.04 0.04 0.04 0.05 0.04 0.04
MSLP
1012.36 1012.59 1012.78 1012.91 1012.98 1013.02 1013.08 1013.16 1013.31 1013.53 1013.81 1014.13 1014.44 1014.73 1014.95 1015.10 1015.18 1015.21 1015.22 1015.24 1015.33 1015.49 1015.75 1016.11 1016.56 1017.06 1017.58 1018.09 1018.56 1018.97 1019.29 1019.54 1019.70 1019.80 1019.85 1019.86 1019.85 1019.81 1019.78 1019.74 1019.71 1019.69 1019.69
1012.40 1012.70 1012.95 1013.11 1013.20 1013.23 1013.25 1013.31 1013.43 1013.64 1013.93 1014.26 1014.61 1014.91 1015.14 1015.28 1015.31 1015.29 1015.23 1015.19 1015.21 1015.34 1015.58 1015.94 1016.40 1016.91 1017.44 1017.95 1018.40 1018.79 1019.10 1019.34 1019.52 1019.66 1019.76 1019.83 1019.88 1019.91 1019.91 1019.87 1019.82 1019.74 1019.67
1012.29 1012.65 1012.97 1013.19 1013.30 1013.34 1013.35 1013.38 1013.49 1013.69 1013.98 1014.34 1014.71 1015.04 1015.29 1015.42 1015.44 1015.38 1015.27 1015.18 1015.16 1015.25 1015.47 1015.82 1016.26 1016.76 1017.27 1017.75 1018.18 1018.54 1018.83 1019.07 1019.28 1019.46 1019.63 1019.79 1019.92 1020.02 1020.05 1020.03 1019.94 1019.81 1019.65
1012.03 1012.45 1012.83 1013.11 1013.26 1013.32 1013.32 1013.34 1013.43 1013.62 1013.92 1014.29 1014.68 1015.04 1015.31 1015.45 1015.47 1015.39 1015.27 1015.15 1015.11 1015.17 1015.37 1015.70 1016.12 1016.59 1017.07 1017.52 1017.91 1018.24 1018.52 1018.77 1019.01 1019.25 1019.50 1019.74 1019.95 1020.11 1020.18 1020.17 1020.05 1019.86 1019.61
1011.69 1012.16 1012.59 1012.91 1013.10 1013.17 1013.18 1013.18 1013.25 1013.42 1013.71 1014.07 1014.48 1014.85 1015.14 1015.30 1015.34 1015.27 1015.15 1015.03 1014.98 1015.04 1015.23 1015.54 1015.94 1016.39 1016.83 1017.25 1017.61 1017.92 1018.19 1018.45 1018.72 1019.01 1019.33 1019.64 1019.92 1020.14 1020.25 1020.23 1020.09 1019.83 1019.51
1011.36 1011.86 1012.33 1012.68 1012.89 1012.97 1012.96 1012.94 1012.97 1013.10 1013.35 1013.70 1014.09 1014.46 1014.76 1014.94 1015.00 1014.95 1014.85 1014.76 1014.73 1014.80 1014.99 1015.30 1015.69 1016.11 1016.54 1016.93 1017.27 1017.56 1017.83 1018.10 1018.40 1018.73 1019.10 1019.46 1019.80 1020.05 1020.18 1020.16 1020.00 1019.70 1019.31
1011.14 1011.64 1012.12 1012.49 1012.71 1012.77 1012.73 1012.67 1012.65 1012.72 1012.92 1013.21 1013.57 1013.91 1014.20 1014.39 1014.46 1014.45 1014.38 1014.31 1014.31 1014.41 1014.62 1014.93 1015.32 1015.75 1016.16 1016.54 1016.87 1017.16 1017.43 1017.71 1018.02 1018.37 1018.76 1019.16 1019.52 1019.80 1019.94 1019.93 1019.75 1019.43 1019.01
1011.09 1011.57 1012.05 1012.41 1012.60 1012.64 1012.56 1012.44 1012.35 1012.36 1012.48 1012.70 1012.99 1013.29 1013.55 1013.72 1013.80 1013.80 1013.75 1013.72 1013.74 1013.87 1014.10 1014.43 1014.84 1015.27 1015.68 1016.06 1016.39 1016.68 1016.95 1017.23 1017.55 1017.91 1018.31 1018.71 1019.08 1019.37 1019.52 1019.52 1019.36 1019.05 1018.64
1011.20 1011.67 1012.12 1012.45 1012.62 1012.61 1012.49 1012.31 1012.15 1012.08 1012.11 1012.25 1012.46 1012.70 1012.90 1013.03 1013.09 1013.08 1013.04 1013.02 1013.07 1013.21 1013.46 1013.81 1014.23 1014.67 1015.10 1015.49 1015.83 1016.12 1016.39 1016.67 1016.98 1017.33 1017.71 1018.11 1018.48 1018.77 1018.94 1018.97 1018.85 1018.59 1018.22
1011.45 1011.89 1012.30 1012.60 1012.73 1012.68 1012.51 1012.28 1012.06 1011.92 1011.87 1011.93 1012.05 1012.20 1012.33 1012.41 1012.42 1012.38 1012.33 1012.31 1012.35 1012.50 1012.75 1013.11 1013.53 1013.98 1014.42 1014.82 1015.17 1015.47 1015.74 1016.02 1016.31 1016.64 1017.01 1017.38 1017.74 1018.04 1018.25 1018.33 1018.27 1018.10 1017.82
1011.75 1012.15 1012.53 1012.78 1012.86 1012.79 1012.58 1012.32 1012.06 1011.86 1011.76 1011.74 1011.78 1011.85 1011.90 1011.90 1011.86 1011.77 1011.68 1011.63 1011.65 1011.78 1012.02 1012.36 1012.78 1013.23 1013.67 1014.08 1014.44 1014.74 1015.02 1015.28 1015.56 1015.87 1016.22 1016.58 1016.93 1017.25 1017.49 1017.64 1017.68 1017.61 1017.44
1012.00 1012.36 1012.69 1012.89 1012.94 1012.84 1012.63 1012.36 1012.09 1011.87 1011.73 1011.66 1011.64 1011.63 1011.61 1011.54 1011.42 1011.27 1011.13 1011.02 1011.01 1011.10 1011.30 1011.62 1012.02 1012.45 1012.89 1013.29 1013.65 1013.97 1014.24 1014.50 1014.77 1015.06 1015.39 1015.74 1016.09 1016.43 1016.72 1016.94 1017.07 1017.12 1017.08
1012.11 1012.42 1012.69 1012.86 1012.88 1012.78 1012.57 1012.32 1012.07 1011.86 1011.71 1011.62 1011.56 1011.49 1011.40 1011.26 1011.08 1010.86 1010.66 1010.50 1010.43 1010.47 1010.63 1010.91 1011.27 1011.67 1012.09 1012.49 1012.85 1013.16 1013.44 1013.69 1013.95 1014.24 1014.55 1014.89 1015.25 1015.61 1015.94 1016.22 1016.45 1016.60 1016.68
1012.02 1012.27 1012.49 1012.62 1012.63 1012.53 1012.36 1012.15 1011.95 1011.78 1011.65 1011.55 1011.46 1011.36 1011.21 1011.02 1010.77 1010.50 1010.24 1010.03 1009.91 1009.89 1010.00 1010.23 1010.55 1010.92 1011.30 1011.68 1012.03 1012.34 1012.61 1012.87 1013.13 1013.41 1013.71 1014.05 1014.41 1014.78 1015.14 1015.48 1015.78 1016.01 1016.18
1011.73 1011.92 1012.08 1012.17 1012.18 1012.11 1011.98 1011.84 1011.69 1011.57 1011.48 1011.39 1011.29 1011.16 1010.97 1010.73 1010.44 1010.12 1009.82 1009.56 1009.39 1009.34 1009.40 1009.58 1009.84 1010.17 1010.52 1010.88 1011.21 1011.51 1011.78 1012.04 1012.30 1012.58 1012.88 1013.21 1013.57 1013.95 1014.32 1014.69 1015.02 1015.31 1015.54
1011.28 1011.39 1011.50 1011.56 1011.57 1011.53 1011.47 1011.39 1011.31 1011.24 1011.18 1011.10 1010.99 1010.84 1010.62 1010.34 1010.01 1009.66 1009.33 1009.05 1008.85 1008.76 1008.78 1008.92 1009.14 1009.42 1009.74 1010.06 1010.37 1010.66 1010.94 1011.20 1011.46 1011.74 1012.05 1012.37 1012.73 1013.09 1013.47 1013.83 1014.17 1014.48 1014.74
1010.72 1010.76 1010.81 1010.86 1010.88 1010.88 1010.87 1010.85 1010.83 1010.81 1010.77 1010.69 1010.57 1010.38 1010.13 1009.82 1009.46 1009.09 1008.75 1008.45 1008.24 1008.13 1008.13 1008.23 1008.42 1008.66 1008.94 1009.23 1009.52 1009.80 1010.07 1010.34 1010.61 1010.90 1011.21 1011.54 1011.88 1012.23 1012.59 1012.93 1013.26 1013.56 1013.82
1010.12 1010.10 1010.11 1010.14 1010.17 1010.21 1010.25 1010.29 1010.31 1010.31 1010.27 1010.18 1010.02 1009.80 1009.51 1009.16 1008.78 1008.40 1008.05 1007.76 1007.55 1007.44 1007.42 1007.50 1007.65 1007.86 1008.11 1008.37 1008.64 1008.92 1009.19 1009.47 1009.76 1010.06 1010.38 1010.71 1011.05 1011.39 1011.73 1012.04 1012.34 1012.62 1012.86
1009.56 1009.47 1009.45 1009.47 1009.52 1009.60 1009.67 1009.74 1009.78 1009.78 1009.72 1009.60 1009.39 1009.12 1008.78 1008.39 1008.00 1007.61 1007.26 1006.98 1006.78 1006.67 1006.66 1006.73 1006.86 1007.04 1007.26 1007.51 1007.76 1008.03 1008.31 1008.61 1008.92 1009.24 1009.58 1009.93 1010.27 1010.61 1010.92 1011.22 1011.49 1011.74 1011.96
1009.05 1008.92 1008.87 1008.89 1008.95 1009.05 1009.15 1009.23 1009.27 1009.25 1009.15 1008.97 1008.71 1008.37 1007.98 1007.56 1007.14 1006.74 1006.41 1006.14 1005.96 1005.87 1005.86 1005.92 1006.05 1006.21 1006.42 1006.64 1006.89 1007.16 1007.46 1007.77 1008.11 1008.47 1008.84 1009.21 1009.57 1009.91 1010.23 1010.51 1010.77 1010.99 1011.19
1008.63 1008.45 1008.38 1008.38 1008.45 1008.55 1008.66 1008.73 1008.75 1008.69 1008.55 1008.31 1007.98 1007.58 1007.14 1006.69 1006.25 1005.85 1005.52 1005.28 1005.12 1005.05 1005.05 1005.12 1005.24 1005.40 1005.60 1005.82 1006.07 1006.35 1006.66 1007.00 1007.37 1007.77 1008.17 1008.57 1008.96 1009.32 1009.65 1009.94 1010.19 1010.41 1010.60
1008.27 1008.05 1007.95 1007.94 1007.99 1008.08 1008.17 1008.22 1008.21 1008.10 1007.90 1007.60 1007.21 1006.77 1006.29 1005.81 1005.36 1004.97 1004.66 1004.43 1004.30 1004.25 1004.27 1004.35 1004.48 1004.64 1004.84 1005.06 1005.32 1005.61 1005.94 1006.31 1006.71 1007.14 1007.58 1008.01 1008.43 1008.82 1009.17 1009.47 1009.74 1009.96 1010.15
1007.95 1007.70 1007.56 1007.51 1007.54 1007.59 1007.64 1007.66 1007.60 1007.44 1007.19 1006.84 1006.41 1005.93 1005.42 1004.93 1004.49 1004.11 1003.82 1003.63 1003.52 1003.50 1003.54 1003.64 1003.78 1003.96 1004.16 1004.40 1004.67 1004.98 1005.32 1005.71 1006.14 1006.59 1007.05 1007.51 1007.96 1008.37 1008.74 1009.07 1009.35 1009.59 1009.79
1007.63 1007.34 1007.16 1007.07 1007.04 1007.05 1007.05 1007.01 1006.89 1006.69 1006.40 1006.01 1005.56 1005.06 1004.56 1004.08 1003.65 1003.31 1003.05 1002.88 1002.81 1002.82 1002.89 1003.01 1003.18 1003.37 1003.59 1003.84 1004.13 1004.45 1004.81 1005.21 1005.64 1006.10 1006.57 1007.04 1007.50 1007.92 1008.31 1008.65 1008.94 1009.20 1009.41
1007.29 1006.96 1006.73 1006.58 1006.49 1006.43 1006.36 1006.26 1006.09 1005.85 1005.52 1005.12 1004.67 1004.18 1003.70 1003.25 1002.86 1002.55 1002.33 1002.21 1002.17 1002.21 1002.31 1002.47 1002.66 1002.87 1003.12 1003.39 1003.68 1004.02 1004.38 1004.78 1005.21 1005.66 1006.12 1006.58 1007.02 1007.43 1007.82 1008.16 1008.46 1008.72 1008.94
1006.89 1006.53 1006.25 1006.03 1005.87 1005.73 1005.59 1005.42 1005.21 1004.93 1004.59 1004.19 1003.75 1003.29 1002.85 1002.44 1002.10 1001.84 1001.67 1001.59 1001.59 1001.67 1001.80 1001.99 1002.21 1002.46 1002.72 1003.01 1003.33 1003.67 1004.03 1004.42 1004.83 1005.25 1005.68 1006.10 1006.51 1006.89 1007.25 1007.58 1007.87 1008.13 1008.36
Thickness
5803 5803 5801 5799 5796 5793 5790 5789 5787 5785 5783 5779 5776 5773 5771 5771 5771 5771 5770 5770 5769 5768 5766 5765 5763 5761 5759 5757 5756 5754 5751 5749 5748 5745 5741 5742 5743 5743 5742 5742 5741 5741 5740
5801 5801 5801 5799 5796 5793 5792 5790 5788 5787 5785 5783 5780 5777 5774 5772 5772 5771 5770 5770 5769 5768 5767 5765 5763 5761 5759 5757 5755 5753 5749 5747 5746 5743 5738 5734 5735 5738 5740 5739 5739 5739 5738
5801 5801 5800 5799 5797 5795 5794 5793 5791 5789 5787 5785 5781 5778 5775 5772 5771 5770 5770 5770 5769 5768 5767 5765 5763 5761 5759 5756 5755 5753 5750 5746 5745 5744 5740 5733 5728 5731 5735 5736 5737 5736 5735
5806 5804 5803 5801 5799 5798 5797 5795 5793 5790 5788 5785 5782 5778 5773 5770 5770 5770 5770 5770 5769 5768 5767 5765 5763 5761 5759 5757 5755 5753 5751 5748 5744 5743 5742 5740 5737 5730 5728 5731 5733 5734 5733
5809 5807 5806 5805 5804 5802 5799 5796 5794 5791 5789 5786 5783 5779 5776 5774 5772 5771 5770 5769 5769 5768 5767 5765 5763 5761 5759 5758 5756 5754 5752 5750 5746 5744 5742 5739 5737 5734 5729 5726 5728 5730 5731
5812 5810 5809 5807 5805 5803 5801 5798 5794 5791 5790 5787 5784 5781 5777 5774 5772 5770 5769 5768 5767 5767 5766 5765 5763 5762 5760 5758 5756 5754 5752 5750 5748 5745 5743 5740 5736 5733 5730 5726 5726 5726 5728
5812 5809 5807 5806 5804 5803 5801 5798 5795 5792 5790 5788 5785 5782 5780 5777 5773 5771 5770 5768 5766 5765 5765 5765 5763 5761 5760 5758 5757 5754 5752 5750 5748 5746 5743 5742 5740 5737 5734 5729 5725 5724 5726
5814 5812 5811 5809 5806 5804 5801 5798 5795 5792 5790 5788 5786 5783 5781 5778 5776 5774 5771 5769 5768 5767 5766 5765 5763 5761 5759 5758 5756 5754 5752 5750 5748 5746 5744 5742 5741 5739 5736 5732 5727 5722 5722
5814 5813 5812 5810 5807 5805 5803 5800 5797 5793 5791 5789 5786 5783 5781 5779 5777 5775 5773 5771 5769 5768 5766 5765 5763 5761 5759 5757 5755 5753 5751 5749 5747 5745 5744 5742 5740 5739 5737 5734 5731 5725 5719
5813 5812 5811 5810 5808 5806 5804 5801 5798 5795 5792 5789 5786 5784 5781 5779 5777 5775 5772 5771 5769 5768 5766 5764 5762 5760 5758 5756 5754 5752 5750 5748 5745 5744 5742 5741 5739 5738 5736 5734 5731 5728 5722
5813 5812 5811 5810 5808 5806 5802 5800 5797 5794 5791 5789 5786 5784 5781 5779 5777 5774 5773 5771 5769 5767 5765 5763 5760 5758 5756 5754 5752 5750 5748 5746 5744 5742 5741 5739 5738 5736 5735 5732 5729 5726 5723
5812 5810 5809 5807 5805 5802 5800 5798 5796 5793 5791 5789 5786 5783 5780 5778 5776 5774 5772 5770 5768 5767 5765 5762 5759 5757 5755 5753 5750 5748 5746 5744 5742 5741 5739 5738 5737 5735 5733 5730 5728 5725 5722
5808 5807 5805 5804 5802 5800 5798 5796 5795 5793 5791 5788 5784 5781 5779 5777 5775 5773 5771 5769 5767 5765 5763 5761 5758 5756 5754 5751 5749 5747 5745 5743 5741 5740 5738 5736 5734 5732 5730 5728 5726 5724 5722
5805 5804 5802 5801 5800 5799 5796 5794 5793 5791 5789 5785 5782 5779 5777 5775 5773 5771 5769 5767 5766 5763 5761 5759 5757 5755 5753 5751 5748 5746 5743 5741 5740 5738 5737 5736 5733 5731 5729 5727 5724 5721 5718
5800 5801 5800 5799 5797 5796 5793 5792 5790 5789 5787 5782 5779 5777 5775 5773 5771 5768 5766 5764 5763 5761 5759 5756 5755 5753 5751 5750 5747 5744 5742 5739 5738 5737 5735 5734 5733 5731 5728 5726 5722 5719 5716
5798 5799 5798 5797 5795 5794 5792 5790 5788 5786 5783 5779 5777 5775 5772 5769 5767 5765 5763 5761 5759 5757 5755 5753 5751 5750 5750 5749 5746 5744 5741 5738 5736 5734 5733 5731 5730 5728 5726 5723 5721 5718 5714
5796 5796 5795 5795 5794 5793 5792 5789 5786 5783 5779 5776 5774 5771 5769 5766 5764 5762 5759 5757 5755 5753 5751 5749 5748 5747 5747 5745 5743 5742 5739 5737 5735 5733 5730 5729 5728 5725 5722 5720 5718 5715 5713
5792 5793 5793 5793 5792 5791 5788 5786 5783 5778 5775 5772 5770 5768 5765 5762 5760 5758 5755 5753 5752 5750 5748 5746 5745 5743 5743 5741 5740 5738 5735 5733 5732 5730 5727 5725 5723 5722 5718 5716 5713 5711 5709
5789 5789 5790 5790 5787 5785 5783 5779 5776 5773 5770 5767 5765 5764 5761 5758 5756 5754 5752 5750 5748 5746 5745 5743 5741 5739 5738 5737 5735 5733 5730 5728 5726 5725 5724 5721 5719 5717 5713 5710 5707 5705 5704
5782 5783 5783 5783 5780 5778 5776 5772 5768 5765 5763 5763 5761 5759 5757 5755 5752 5751 5748 5746 5744 5742 5740 5738 5737 5736 5734 5733 5730 5727 5726 5722 5721 5719 5719 5717 5714 5711 5708 5705 5702 5700 5699
5775 5776 5775 5773 5772 5771 5768 5764 5762 5760 5760 5759 5756 5753 5751 5749 5747 5745 5743 5741 5739 5736 5734 5733 5732 5731 5730 5728 5725 5723 5720 5718 5715 5714 5712 5711 5708 5706 5703 5700 5698 5696 5694
5764 5766 5765 5764 5764 5763 5761 5757 5755 5757 5755 5753 5749 5747 5745 5743 5741 5738 5736 5734 5732 5729 5727 5726 5724 5724 5724 5722 5720 5717 5715 5713 5710 5708 5707 5705 5702 5700 5697 5695 5693 5690 5687
5754 5756 5756 5754 5753 5753 5752 5749 5750 5750 5748 5745 5742 5740 5738 5735 5733 5731 5728 5726 5724 5721 5720 5718 5717 5717 5717 5715 5713 5710 5708 5706 5704 5703 5701 5699 5696 5693 5691 5689 5686 5683 5680
5742 5744 5744 5743 5743 5743 5744 5743 5743 5743 5740 5737 5734 5732 5729 5726 5724 5723 5721 5719 5716 5714 5713 5711 5710 5709 5708 5708 5706 5704 5701 5699 5696 5695 5693 5691 5688 5686 5684 5682 5679 5676 5673
5732 5733 5733 5732 5732 5734 5734 5734 5735 5734 5731 5729 5727 5724 5722 5719 5716 5714 5713 5712 5712 5710 5708 5706 5704 5702 5701 5702 5700 5697 5695 5692 5689 5686 5684 5682 5680 5677 5675 5672 5671 5668 5665
5720 5721 5721 5722 5723 5724 5724 5725 5727 5726 5723 5720 5718 5716 5713 5710 5708 5706 5704 5704 5704 5703 5701 5700 5698 5697 5695 5693 5691 5688 5687 5684 5681 5678 5676 5674 5672 5670 5668 5666 5663 5661 5658